Location: Schommer Observatory
(40.5200°N, 74.4500°W)
Time: 11:08:04
(UTC-04:00)

ISS - Pass Details

Date: 13 October 2017
Orbit: 401 x 408 km, 51.6° (Epoch: 18 October)

Event Time Altitude Azimuth Distance (km) Brightness Sun altitude
Rises 18:42:10 0° 311° (NW) 2,324 0.7 -4.9°
Reaches altitude 10° 18:44:24 10° 323° (NW) 1,463 -0.5 -5.4°
Maximum altitude 18:47:21 31° 27° (NNE) 746 -2.8 -5.9°
Drops below altitude 10° 18:50:19 10° 92° (E) 1,462 -1.7 -6.5°
Enters shadow 18:50:41 - 94° (E) 1,595 -1.5 -6.5°
